Weather History for CYZR - July, 2013

Change the Weather History Date:

Monday, July 15, 2013

  Actual Average Record
Temperature  
Mean Temperature 78 °F -  
Max Temperature 96 °F 82 °F 100 °F (1977)
Min Temperature 60 °F 62 °F 47 °F (1950)
Cooling Degree Days 13    
Growing Degree Days 28 (Base 50)    
Moisture  
Dew Point 70 °F    
Average Humidity 78    
Maximum Humidity 100    
Minimum Humidity 19    
Precipitation  
Precipitation 0.00 in - - ()
Sea Level Pressure  
Sea Level Pressure 30.25 in    
Wind  
Wind Speed 3 mph ()    
Max Wind Speed 12 mph    
Max Gust Speed -    
Visibility 7.6 miles    
Events Rain , Thunderstorm    
Averages and records for this station are not official NWS values.
T = Trace of Precipitation, MM = Missing Value Source: Averaged Metar Reports

Daily Weather History Graph

Daily Weather History Graph

Search for Another Location

Airport or City:

Trip Planner

Search our weather history database for the weather conditions in past years. The results will help you decide how hot, cold, wet, or windy it might be!

Date:

Astronomy

Jul. 15, 2013 Rise Set
Actual Time 6:03 AM EDT 9:06 PM EDT
Civil Twilight 5:29 AM EDT 9:40 PM EDT
Nautical Twilight 4:46 AM EDT 10:23 PM EDT
Astronomical Twilight 3:54 AM EDT 11:14 PM EDT
Moon 1:34 PM EDT (7/15) 12:06 AM EDT (7/15)
Length of Visible Light 16h 10m
Length of Day
15h 02m
Waxing Crescent, 45% of the Moon is Illuminated
Jul 15
Waxing Crescent
Jul 15
First Quarter
Jul 22
Full
Jul 29
Last Quarter
Aug 6
New

Hourly Weather History & Observations

Time (EDT) Temp. Heat Index Dew Point Humidity Pressure Visibility Wind Dir Wind Speed Gust Speed Precip Events Conditions
12:00 AM 73.4 °F - 69.8 °F 88% 30.27 in 9.0 mi South 3.5 mph - N/A   Clear
1:00 AM 71.6 °F - 69.8 °F 94% 30.27 in 9.0 mi Calm Calm - N/A   Clear
2:00 AM 63 °F - 57 °F 76% 30.08 in - South 1.2 mph - -  
2:00 AM 69.8 °F - 68.0 °F 94% 30.27 in 9.0 mi ESE 3.5 mph - N/A   Clear
3:00 AM 69.8 °F - 68.0 °F 94% 30.27 in 9.0 mi Calm Calm - N/A   Clear
4:00 AM 68.0 °F - 68.0 °F 100% 30.27 in 9.0 mi NNE 2.3 mph - N/A   Clear
5:00 AM 68.0 °F - 68.0 °F 100% 30.28 in 7.0 mi Calm Calm - N/A   Clear
6:00 AM 68.0 °F - 68.0 °F 100% 30.28 in 7.0 mi SSE 2.3 mph - N/A   Clear
6:54 AM 69.8 °F - 68.0 °F 94% 30.30 in 5.0 mi Calm Calm - N/A   Clear
7:00 AM 69.8 °F - 68.0 °F 94% 30.30 in 4.0 mi Calm Calm - N/A   Clear
7:05 AM 69.8 °F - 69.8 °F 100% 30.30 in 6.0 mi Calm Calm - N/A   Clear
8:00 AM 78 °F - 60 °F 44% 30.06 in - SW 2.3 mph - -  
8:00 AM 75.2 °F - 69.8 °F 83% 30.31 in 9.0 mi SE 2.3 mph - N/A   Clear
9:00 AM 78.8 °F - 69.8 °F 74% 30.31 in 9.0 mi Variable 2.3 mph - N/A   Clear
9:34 AM 80.6 °F 83.9 °F 69.8 °F 70% 30.31 in 5.0 mi NNE 3.5 mph - N/A   Haze
9:43 AM 80.6 °F 84.6 °F 71.6 °F 74% 30.31 in 6.0 mi NNE 3.5 mph - N/A   Haze
10:00 AM 82.4 °F 86.3 °F 69.8 °F 66% 30.31 in 9.0 mi North 3.5 mph - N/A   Clear
11:00 AM 82.4 °F 86.3 °F 69.8 °F 66% 30.31 in 9.0 mi North 4.6 mph - N/A   Clear
12:00 PM 84.2 °F 88.4 °F 69.8 °F 62% 30.31 in 9.0 mi NNE 5.8 mph - N/A   Clear
1:00 PM 84.2 °F 87.3 °F 68.0 °F 58% 30.30 in 9.0 mi North 8.1 mph - N/A   Clear
2:00 PM 94 °F - 56 °F 19% 29.97 in - West 3.5 mph - -  
2:00 PM 84.2 °F 88.4 °F 69.8 °F 62% 30.29 in 9.0 mi North 10.4 mph - N/A   Partly Cloudy
3:00 PM 84.2 °F 89.6 °F 71.6 °F 66% 30.28 in 9.0 mi NNE 10.4 mph - N/A   Clear
4:00 PM 84.2 °F 90.9 °F 73.4 °F 70% 30.27 in 9.0 mi NNE 9.2 mph - N/A   Clear
4:50 PM 82.4 °F 87.2 °F 71.6 °F 70% 30.26 in 9.0 mi NE 10.4 mph - N/A Thunderstorm Scattered Clouds
5:00 PM 82.4 °F 87.2 °F 71.6 °F 70% 30.26 in 9.0 mi NNE 11.5 mph - N/A Thunderstorm Partly Cloudy
5:06 PM 82.4 °F 87.2 °F 71.6 °F 70% 30.27 in 9.0 mi NE 10.4 mph - N/A   Scattered Clouds
5:56 PM 80.6 °F 84.6 °F 71.6 °F 74% 30.25 in 9.0 mi NE 6.9 mph - N/A Thunderstorm Mostly Cloudy
6:00 PM 80.6 °F 83.9 °F 69.8 °F 70% 30.25 in 9.0 mi NE 6.9 mph - N/A Thunderstorm Mostly Cloudy
6:37 PM 78.8 °F - 71.6 °F 78% 30.26 in 9.0 mi NE 5.8 mph - N/A   Overcast
7:00 PM 80.6 °F 83.9 °F 69.8 °F 70% 30.26 in 9.0 mi Calm Calm - N/A   Mostly Cloudy
8:00 PM 81 °F - 59 °F 36% 30.02 in - North 4.6 mph - -  
8:00 PM 80.6 °F 85.4 °F 73.4 °F 79% 30.27 in 9.0 mi SW 5.8 mph - N/A   Mostly Cloudy
9:00 PM 78.8 °F - 73.4 °F 83% 30.25 in 9.0 mi South 2.3 mph - N/A   Clear
9:25 PM 78.8 °F - 73.4 °F 83% 30.24 in 3.0 mi Variable 2.3 mph - N/A   Haze
9:27 PM 78.8 °F - 73.4 °F 83% 30.24 in 3.0 mi Variable 2.3 mph - N/A Rain Light Rain
9:35 PM 78.8 °F - 73.4 °F 83% 30.25 in 7.0 mi Calm Calm - N/A Rain Light Rain
9:36 PM 78.8 °F - 73.4 °F 83% 30.25 in 4.0 mi Calm Calm - N/A Rain Light Rain
9:42 PM 78.8 °F - 73.4 °F 83% 30.25 in 3.0 mi Calm Calm - N/A   Haze
9:47 PM 77.0 °F - 73.4 °F 89% 30.26 in 6.0 mi Variable 3.5 mph - N/A   Haze
9:51 PM 77.0 °F - 73.4 °F 89% 30.25 in 7.0 mi NNE 3.5 mph - N/A Rain Light Rain
10:00 PM 77.0 °F - 73.4 °F 89% 30.26 in 9.0 mi Calm Calm - N/A Rain Light Rain
10:13 PM 77.0 °F - 75.2 °F 94% 30.26 in 9.0 mi Calm Calm - N/A   Clear
11:00 PM 75.2 °F - 73.4 °F 94% 30.26 in 9.0 mi Calm Calm - N/A   Clear
11:22 PM 75.2 °F - 73.4 °F 94% 30.26 in 5.0 mi ENE 3.5 mph - N/A   Clear
11:41 PM 75.2 °F - 73.4 °F 94% 30.27 in 6.0 mi Calm Calm - N/A   Clear